This demonstration page uses our WeatherBlox Daily Observations layout. Learn more.

Hourly Observations for January 5, 2020

Temp ( °F °C ) Dew Point ( °F °C ) Humidity (%) Winds ( mph kmh ) Pressure ( in mb ) Visibility ( mi km ) Precip ( " mm )
12:15 am 00:15 Mostly Cloudy 41 5 32 0 70 70 NNW 15 24 29.78 1009 10 16.0934 0 0
12:35 am 00:35 Cloudy 41 5 32 0 70 70 NNW 14 22 29.79 1009 10 16.0934 0 0
12:55 am 00:55 Cloudy 41 5 32 0 70 70 N 14 22 29.8 1009 10 16.0934 0 0
1:15 am 01:15 Cloudy 41 5 32 0 70 70 NNW 17 28 29.81 1010 10 16.0934 0 0
1:35 am 01:35 Cloudy 41 5 32 0 70 70 NNW 14 22 29.82 1010 10 16.0934 0 0
1:55 am 01:55 Cloudy 41 5 32 0 70 70 NNW 16 26 29.84 1011 10 16.0934 0 0
2:15 am 02:15 Cloudy 39 4 32 0 75 75 NW 13 20 29.86 1011 10 16.0934 0 0
2:35 am 02:35 Cloudy 39 4 32 0 75 75 NW 25 41 29.87 1011 10 16.0934 0 0
2:55 am 02:55 Mostly Cloudy 37 3 32 0 81 81 NW 25 41 29.87 1011 10 16.0934 0 0
3:15 am 03:15 Mostly Cloudy 37 3 32 0 81 81 NW 23 37 29.89 1012 10 16.0934 0 0
3:35 am 03:35 Partly Cloudy 37 3 32 0 81 81 NW 24 39 29.9 1012 10 16.0934 0 0
3:55 am 03:55 Partly Cloudy 37 3 30 -1 75 75 NW 28 44 29.91 1013 10 16.0934 0 0
4:15 am 04:15 Mostly Cloudy 37 3 28 -2 70 70 NW 32 52 29.93 1013 10 16.0934 0 0
4:35 am 04:35 Cloudy 37 3 27 -3 65 65 NW 24 39 29.95 1014 10 16.0934 0 0
4:55 am 04:55 Cloudy 37 3 28 -2 70 70 NW 22 35 29.98 1015 10 16.0934 0 0
5:15 am 05:15 Cloudy 37 3 28 -2 70 70 NW 24 39 29.99 1015 10 16.0934 0 0
5:35 am 05:35 Cloudy 36 2 28 -2 75 75 NNW 23 37 30 1016 10 16.0934 0 0
5:55 am 05:55 Cloudy 36 2 28 -2 75 75 NNW 16 26 30.02 1017 10 16.0934 0 0
6:15 am 06:15 Cloudy 36 2 27 -3 70 70 NNW 21 33 30.02 1017 10 16.0934 0 0
6:35 am 06:35 Cloudy 36 2 27 -3 70 70 NW 18 30 30.02 1017 10 16.0934 0 0
6:55 am 06:55 Cloudy 36 2 27 -3 70 70 NNW 13 20 30.04 1017 10 16.0934 0 0
7:15 am 07:15 Cloudy 36 2 27 -3 70 70 NNW 16 26 30.04 1017 10 16.0934 0 0
7:35 am 07:35 Cloudy 36 2 27 -3 70 70 N 5 7 30.04 1017 10 16.0934 0 0
7:55 am 07:55 Cloudy 36 2 27 -3 70 70 NNW 6 9 30.06 1018 10 16.0934 0 0
8:15 am 08:15 Cloudy 36 2 27 -3 70 70 NNW 6 9 30.06 1018 10 16.0934 0 0
8:35 am 08:35 Cloudy 36 2 28 -2 75 75 NNW 6 9 30.08 1019 10 16.0934 0 0
8:55 am 08:55 Cloudy 36 2 28 -2 75 75 NW 9 15 30.09 1019 10 16.0934 0 0
9:15 am 09:15 Cloudy 37 3 27 -3 65 65 NW 17 28 30.1 1019 10 16.0934 0 0
9:35 am 09:35 Cloudy 36 2 27 -3 70 70 NNW 17 28 30.11 1020 10 16.0934 0 0
9:55 am 09:55 Cloudy 37 3 28 -2 70 70 NW 15 24 30.11 1020 10 16.0934 0 0
10:15 am 10:15 Cloudy 37 3 28 -2 70 70 NNW 21 33 30.11 1020 10 16.0934 0 0
10:35 am 10:35 Cloudy 37 3 28 -2 70 70 NW 18 30 30.12 1020 10 16.0934 0 0
10:55 am 10:55 Cloudy 37 3 28 -2 70 70 NW 20 31 30.12 1020 10 16.0934 0 0
11:15 am 11:15 Cloudy 37 3 28 -2 70 70 NW 15 24 30.12 1020 10 16.0934 0 0
11:35 am 11:35 Cloudy 37 3 28 -2 70 70 NNW 16 26 30.12 1020 10 16.0934 0 0
11:55 am 11:55 Cloudy 37 3 28 -2 70 70 NW 15 24 30.11 1020 10 16.0934 0 0
12:15 pm 12:15 Cloudy 37 3 28 -2 70 70 NW 21 33 30.1 1019 10 16.0934 0 0
12:35 pm 12:35 Cloudy 39 4 27 -3 61 61 NW 20 31 30.1 1019 10 16.0934 0 0
12:55 pm 12:55 Cloudy 39 4 28 -2 65 65 WNW 24 39 30.09 1019 10 16.0934 0 0
1:15 pm 13:15 Mostly Cloudy 37 3 28 -2 70 70 WNW 12 19 30.1 1019 10 16.0934 0 0
1:35 pm 13:35 Cloudy 37 3 28 -2 70 70 W 10 17 30.11 1020 10 16.0934 0 0
1:55 pm 13:55 Cloudy 37 3 28 -2 70 70 W 16 26 30.11 1020 10 16.0934 0 0
2:15 pm 14:15 Cloudy 37 3 28 -2 70 70 WNW 17 28 30.1 1019 10 16.0934 0 0
2:35 pm 14:35 Cloudy 39 4 28 -2 65 65 NW 21 33 30.1 1019 10 16.0934 0 0
2:55 pm 14:55 Mostly Cloudy 37 3 27 -3 65 65 NW 10 17 30.11 1020 10 16.0934 0 0
3:15 pm 15:15 Cloudy 37 3 28 -2 70 70 WNW 15 24 30.11 1020 10 16.0934 0 0
3:35 pm 15:35 Cloudy 37 3 28 -2 70 70 NW 13 20 30.12 1020 10 16.0934 0 0
3:55 pm 15:55 Cloudy 39 4 28 -2 65 65 WNW 14 22 30.12 1020 10 16.0934 0 0
4:15 pm 16:15 Cloudy 37 3 28 -2 70 70 NW 8 13 30.12 1020 10 16.0934 0 0
4:35 pm 16:35 Partly Cloudy 37 3 28 -2 70 70 NNW 7 11 30.11 1020 10 16.0934 0 0
4:55 pm 16:55 Sunny 36 2 28 -2 75 75 NNW 7 11 30.11 1020 10 16.0934 0 0
5:15 pm 17:15 Clear 36 2 28 -2 75 75 Calm 30.11 1020 10 16.0934 0 0
5:35 pm 17:35 Clear 36 2 28 -2 75 75 NNW 10 17 30.09 1019 10 16.0934 0 0
5:55 pm 17:55 Clear 34 1 28 -2 81 81 NNW 6 9 30.1 1019 10 16.0934 0 0
6:15 pm 18:15 Clear 36 2 28 -2 75 75 NNW 5 7 30.1 1019 10 16.0934 0 0
6:35 pm 18:35 Clear 32 0 28 -2 87 87 NW 6 9 30.1 1019 10 16.0934 0 0
6:55 pm 18:55 Clear 34 1 28 -2 81 81 Calm 30.1 1019 10 16.0934 0 0
7:15 pm 19:15 Clear 32 0 28 -2 87 87 Calm 30.11 1020 10 16.0934 0 0
7:35 pm 19:35 Clear 32 0 28 -2 87 87 Calm 30.1 1019 10 16.0934 0 0
7:55 pm 19:55 Clear 32 0 28 -2 87 87 S 3 6 30.1 1019 10 16.0934 0 0
8:15 pm 20:15 Clear 32 0 28 -2 87 87 S 3 6 30.08 1019 10 16.0934 0 0
8:35 pm 20:35 Clear 32 0 28 -2 87 87 Calm 30.06 1018 10 16.0934 0 0
8:55 pm 20:55 Clear 32 0 28 -2 87 87 Calm 30.05 1018 10 16.0934 0 0
9:15 pm 21:15 Partly Cloudy 30 -1 28 -2 93 93 SW 3 6 30.04 1017 10 16.0934 0 0
9:35 pm 21:35 Partly Cloudy 30 -1 28 -2 93 93 SW 3 6 30.05 1018 10 16.0934 0 0
9:55 pm 21:55 Clear 30 -1 28 -2 93 93 WNW 5 7 30.06 1018 10 16.0934 0 0
10:15 pm 22:15 Partly Cloudy 30 -1 28 -2 93 93 W 3 6 30.06 1018 10 16.0934 0 0
10:35 pm 22:35 Partly Cloudy 30 -1 27 -3 86 86 W 5 7 30.06 1018 10 16.0934 0 0
10:55 pm 22:55 Clear 30 -1 28 -2 93 93 Calm 30.06 1018 10 16.0934 0 0
11:15 pm 23:15 Clear 30 -1 28 -2 93 93 Calm 30.05 1018 10 16.0934 0 0
11:35 pm 23:35 Clear 30 -1 28 -2 93 93 Calm 30.04 1017 10 16.0934 0 0
11:55 pm 23:55 Mostly Cloudy 30 -1 28 -2 93 93 Calm 30.03 1017 10 16.0934 0 0

Powered by AerisWeather